Location: Newark
(49.5647°N, 8.2922°E)
Time: 14:10:11
(UTC+00:00)

Transit 2A - Pass Details

Date: 18 February 2020
Orbit: 597 x 961 km, 66.7° (Epoch: 30 March)

Event Time Altitude Azimuth Distance (km) Brightness Sun altitude
Rises 12:47:21 0° 179° (S) 2,836 10.1 27.0°
Reaches altitude 10° 12:49:56 10° 164° (SSE) 1,928 9.1 26.9°
Maximum altitude 12:53:19 23° 112° (ESE) 1,284 7.4 26.7°
Drops below altitude 10° 12:56:46 10° 59° (ENE) 1,969 7.8 26.5°
Sets 12:59:25 0° 46° (NE) 2,912 8.5 26.3°
